Theta_e
310 312 315 317 318 316 318 318 315 317 317 320 320 320 322 325 328 330 328 326 331 334 333 333 333 332 331 330 329 328 328 327 327 325 326 325 324 325 327 329 333 335 335 334 334 334 334 336 335
310 314 315 317 314 317 316 316 314 315 318 318 318 319 320 322 324 325 327 328 329 331 332 330 330 329 329 327 326 325 324 324 324 323 321 321 322 322 323 323 325 327 330 331 331 330 329 332 334
312 314 316 314 314 314 316 314 314 315 316 318 318 318 319 319 321 326 326 329 328 328 327 327 327 327 326 324 322 322 322 322 321 320 320 319 320 321 319 317 319 322 324 324 324 324 325 328 331
312 314 314 313 315 315 314 315 314 316 317 317 318 318 315 314 319 324 327 327 328 327 325 324 324 324 323 321 320 321 320 319 319 318 317 317 317 316 315 314 317 316 318 319 319 317 316 321 324
313 315 315 315 315 316 315 314 314 315 317 317 317 318 316 314 316 323 325 327 327 326 324 322 322 321 320 319 319 319 318 317 316 315 315 314 314 315 314 314 315 315 315 315 316 313 310 305 305
313 314 314 315 316 316 314 314 314 314 315 315 315 317 316 314 316 322 324 326 326 325 323 321 319 318 318 318 317 316 315 314 314 312 310 309 306 305 309 311 311 311 313 313 312 308 303 302 301
313 314 315 317 316 315 313 312 312 313 314 315 315 315 315 315 318 321 323 324 324 323 322 320 317 316 316 315 314 313 312 308 305 303 301 300 300 300 300 300 304 303 303 302 302 302 301 301 300
311 314 314 316 315 316 314 311 311 311 312 311 313 314 315 315 318 320 322 322 322 320 319 318 315 314 314 312 309 307 304 301 300 300 299 299 300 299 299 300 300 300 299 300 300 300 300 300 300
310 312 315 316 316 315 312 311 311 309 310 310 311 311 312 314 317 319 320 320 319 318 317 315 313 311 312 310 306 302 300 299 299 299 299 301 303 302 302 299 298 299 299 299 299 299 299 299 302
309 314 317 316 316 314 313 311 312 309 310 310 310 309 311 314 317 318 319 319 318 316 315 313 310 309 309 308 304 304 300 302 301 301 301 301 300 298 299 300 299 299 299 299 299 300 300 302 304
310 314 317 315 312 312 312 310 310 310 312 312 311 310 311 313 315 317 317 317 317 316 314 311 308 307 306 303 304 303 302 302 301 301 300 299 301 301 301 301 301 300 300 301 301 302 302 302 302
311 312 313 314 311 309 310 311 310 310 313 312 312 311 311 312 314 315 316 316 316 315 313 311 307 305 304 303 303 303 302 302 301 301 299 301 301 301 300 300 300 300 300 300 301 301 301 301 301
310 312 312 311 309 309 309 310 311 312 312 311 309 309 310 311 311 312 313 315 315 314 312 309 307 304 304 303 303 302 302 301 300 300 298 299 300 300 299 299 299 299 299 299 299 299 299 299 300
312 310 312 309 309 308 308 310 310 311 311 311 308 308 309 309 310 310 311 313 313 312 310 308 306 304 303 303 302 302 301 300 299 299 299 297 298 298 298 298 299 298 298 298 298 298 298 298 299
310 310 310 310 309 310 309 310 311 311 311 311 312 309 308 307 307 308 309 309 310 310 310 308 305 303 303 302 301 301 300 299 299 299 297 297 297 297 297 298 298 298 297 297 297 297 297 298 299
309 310 313 314 312 310 310 316 315 313 312 311 311 310 308 307 304 304 305 306 307 307 307 307 305 303 302 301 300 300 299 298 299 298 297 297 296 295 296 297 297 296 296 296 296 296 297 298 299
311 314 314 315 313 312 310 314 315 313 313 310 311 309 308 307 305 303 301 301 301 302 304 305 304 302 301 300 299 298 298 298 298 297 297 296 295 295 295 296 296 295 295 295 296 296 296 297 298
315 314 314 317 312 311 311 312 315 309 309 310 311 309 309 307 306 304 301 300 300 300 301 304 303 301 301 299 298 298 297 297 296 296 296 295 294 294 294 295 295 294 294 295 295 295 296 297 297
313 317 316 315 315 312 312 313 313 313 308 309 310 309 308 307 306 301 299 299 299 300 301 302 302 301 299 298 298 298 298 297 296 295 294 294 294 293 293 294 294 294 294 294 294 294 295 296 297
311 314 316 316 313 309 312 314 313 313 312 309 309 309 308 306 304 301 299 299 299 300 301 302 301 299 298 298 298 298 298 298 296 295 294 293 293 292 292 293 293 293 292 293 293 294 294 296 296
312 313 315 316 312 308 309 312 313 312 312 312 311 309 308 307 304 301 300 299 299 299 300 300 299 298 298 297 297 295 294 294 293 293 293 292 291 291 291 291 291 291 291 292 293 293 294 295 296
313 311 312 314 315 317 311 322 318 318 315 313 312 310 309 307 304 302 300 299 299 299 298 298 298 297 296 295 295 295 296 296 296 295 294 292 291 290 290 290 290 290 291 291 292 292 292 292 295
312 310 311 311 313 315 314 314 317 317 318 315 309 310 306 305 303 301 300 299 298 297 297 297 296 295 294 294 294 295 295 295 294 293 292 291 291 289 289 289 289 289 290 290 290 290 291 290 291
309 310 310 311 313 315 315 315 318 318 315 314 310 305 303 303 302 301 299 298 297 296 296 296 295 294 293 293 292 293 293 293 293 292 292 291 290 290 289 288 288 288 289 289 289 289 288 288 288
309 312 316 314 313 316 314 315 316 317 314 312 312 303 302 302 301 300 298 297 296 295 295 294 294 293 293 292 292 291 291 292 291 291 291 291 290 289 289 288 288 288 288 288 288 287 287 287 287
310 312 318 317 318 315 308 318 317 309 302 300 303 303 301 300 299 298 297 296 296 295 294 294 293 293 292 291 291 291 290 290 290 290 289 289 289 289 288 288 287 287 287 287 286 286 286 286 286
311 314 313 312 307 315 310 309 309 305 302 299 302 302 300 299 299 298 298 296 295 294 294 294 293 292 292 291 290 290 289 289 289 288 288 288 287 287 286 285 284 285 284 285 285 285 285 285 285
310 310 312 314 316 318 318 316 319 309 307 301 300 301 300 299 298 297 295 294 293 293 292 290 290 289 289 289 289 288 288 287 286 286 285 285 285 285 284 283 283 283 283 283 283 283 284 284 284
310 312 313 315 317 321 320 324 310 311 308 303 300 301 300 299 297 295 293 292 288 287 286 286 286 286 286 286 286 286 286 286 285 284 284 283 283 283 283 283 282 282 282 282 282 283 284 284 284
309 314 313 316 315 314 314 321 299 299 300 302 300 300 299 297 296 295 293 288 286 286 285 285 284 284 284 285 285 285 284 284 284 283 283 283 282 282 282 282 282 282 282 282 282 283 283 284 284
Wind_Speed
1 2 3 5 6 6 12 6 6 6 5 2 5 4 4 6 3 2 9 6 13 14 13 12 12 10 8 9 11 12 12 12 12 12 13 12 12 13 12 11 8 7 7 7 6 6 4 2 3
3 4 6 3 7 10 10 10 8 7 5 3 3 5 5 2 7 8 8 12 15 13 13 12 11 9 8 11 11 12 12 12 12 13 13 13 13 13 13 12 11 11 8 7 6 5 7 2 1
4 6 4 4 9 12 8 1 7 3 4 5 4 2 3 4 5 10 8 16 15 13 11 10 10 10 11 11 12 12 12 12 12 12 12 13 13 13 12 11 10 12 11 11 9 8 6 3 4
6 6 4 7 14 12 11 1 1 5 4 6 4 5 4 4 5 6 15 16 16 14 13 13 13 13 13 12 12 12 12 12 12 11 12 12 11 10 9 9 10 9 10 10 9 7 5 5 4
8 4 9 12 16 16 6 7 5 6 2 8 8 4 3 5 7 12 15 15 15 14 14 13 13 13 13 13 13 12 12 12 11 10 11 11 12 11 11 10 10 9 9 9 8 6 6 5 6
6 4 9 14 17 13 7 10 10 10 9 4 6 7 5 7 11 14 15 15 14 14 14 13 14 13 13 12 12 11 11 10 10 9 9 9 8 8 9 9 8 8 8 8 7 6 7 8 8
12 8 15 17 15 10 9 2 11 12 14 13 3 9 4 9 10 14 16 15 15 14 14 13 12 13 15 12 11 10 9 8 7 6 5 5 5 5 4 5 6 7 6 6 8 9 10 10 10
8 7 16 15 14 18 8 5 3 8 11 5 0 6 7 12 14 14 13 14 14 13 13 13 13 12 11 10 12 10 7 4 2 1 2 3 4 4 4 5 6 7 8 9 10 11 12 12 12
4 7 12 19 15 10 6 8 7 1 6 5 7 3 6 14 14 14 14 14 14 14 13 12 11 11 11 10 10 7 5 3 2 1 2 4 3 4 5 6 8 8 10 11 12 13 14 12 13
11 11 17 17 12 8 7 10 8 7 11 11 11 6 10 14 15 16 17 17 16 16 16 14 12 12 11 9 8 7 5 4 3 3 1 1 1 3 5 8 9 10 10 12 13 14 12 11 7
9 17 17 12 11 11 11 10 8 9 13 13 15 15 12 15 16 16 17 17 18 16 15 15 14 13 12 10 8 6 5 4 3 3 1 0 1 3 4 5 6 7 10 7 9 8 7 9 9
13 18 18 11 11 8 14 10 10 16 16 2 8 4 16 16 15 18 18 18 17 18 18 16 15 14 13 10 9 7 6 5 4 3 2 1 1 3 4 4 6 8 8 9 8 8 10 9 9
20 19 11 17 9 15 11 15 16 16 16 8 7 8 14 14 15 16 17 17 17 18 18 18 17 15 13 11 9 8 8 6 5 3 3 2 1 2 3 5 5 7 8 8 9 9 10 10 9
8 19 16 12 17 12 15 18 14 16 17 18 14 15 13 13 14 14 16 18 19 18 18 18 17 16 14 12 11 9 8 7 6 4 3 3 2 2 4 5 6 6 7 8 9 10 11 11 10
13 14 12 16 16 15 13 21 25 24 11 15 20 17 15 13 15 17 18 17 18 18 17 19 18 17 16 14 12 10 8 7 6 5 4 4 3 3 4 5 6 6 7 9 8 9 10 11 10
11 16 19 16 21 9 13 23 21 25 20 19 17 16 14 15 13 13 12 12 14 15 18 19 19 19 17 15 13 10 9 8 7 6 4 5 4 5 5 5 6 6 7 7 8 9 10 10 10
15 14 19 20 11 14 18 18 17 7 15 18 18 17 15 14 13 13 12 12 13 14 16 19 19 19 18 15 13 11 10 8 7 6 5 5 5 5 5 6 6 6 7 7 8 9 10 11 10
15 17 20 17 11 17 16 23 10 8 12 16 17 17 17 16 16 15 11 10 11 13 15 18 20 19 19 16 13 10 9 8 8 7 6 6 5 5 5 6 6 6 7 7 7 9 9 11 11
21 20 21 19 15 14 20 22 21 17 13 15 16 17 17 17 13 11 10 8 9 12 15 19 22 21 20 17 15 12 11 10 8 8 7 6 6 6 6 6 6 7 7 8 8 8 9 9 7
23 22 26 18 4 7 15 23 20 21 20 21 19 18 19 16 13 11 11 10 9 11 15 18 20 20 19 15 14 9 11 9 8 8 7 7 7 6 6 6 7 8 8 8 8 7 8 8 6
24 24 22 21 6 11 13 23 22 24 24 22 22 19 20 20 17 14 12 12 11 12 15 17 19 19 17 14 12 9 7 6 6 8 8 8 8 7 8 8 8 8 8 8 7 6 6 7 5
23 24 21 17 10 13 8 13 18 19 26 25 21 20 19 18 16 15 13 14 14 14 14 15 16 17 15 14 12 11 10 10 8 7 6 8 9 8 9 9 8 9 8 8 7 6 6 6 7
20 13 13 17 15 12 16 6 19 16 22 21 19 19 17 16 16 17 15 17 15 15 15 15 15 15 13 12 10 10 10 8 8 7 8 9 9 9 9 9 9 9 8 8 7 6 6 6 6
2 2 2 1 4 9 19 12 27 19 13 17 17 16 16 18 17 15 17 16 16 14 14 14 14 12 11 11 10 10 9 9 9 8 9 9 9 9 9 9 9 8 8 8 7 7 6 7 6
11 10 5 5 5 7 11 13 22 8 6 9 12 16 16 15 17 16 15 14 16 15 14 12 12 12 11 10 10 10 9 9 10 10 9 9 9 9 9 10 9 9 9 8 8 7 8 7 7
25 20 8 9 7 7 5 11 11 1 3 3 1 11 16 18 15 15 14 15 15 14 13 12 12 11 11 11 11 10 10 10 9 8 9 9 9 9 9 9 9 9 10 9 9 9 9 9 9
7 13 6 3 1 1 6 7 16 9 6 6 5 16 17 16 14 14 12 14 14 12 11 11 11 10 10 10 10 10 11 10 9 8 8 9 9 10 15 15 14 13 12 12 12 12 12 12 10
6 12 5 5 6 6 8 7 12 8 10 10 12 17 16 15 14 12 10 12 11 10 9 7 6 10 11 8 9 10 10 10 13 13 14 14 15 15 12 12 12 13 14 14 15 14 13 13 12
6 6 6 2 4 4 3 5 1 1 8 14 13 15 16 14 12 11 10 11 9 8 7 7 7 8 9 10 10 10 10 10 13 13 13 13 13 12 12 12 13 13 13 13 14 14 14 13 12
14 7 14 7 7 5 3 7 1 2 3 10 15 14 12 11 10 9 8 10 8 7 6 5 4 5 6 9 11 11 12 13 13 12 12 12 12 11 12 12 14 14 14 14 14 14 15 15 14
Wind_Direction
116 144 240 235 239 235 251 234 232 196 200 193 302 214 245 337 322 29 130 137 139 130 133 131 133 131 132 131 116 112 106 102 95 88 85 81 75 71 70 75 103 98 92 82 64 51 54 30 184
178 160 185 254 255 233 242 206 205 211 87 179 157 224 246 140 69 112 141 143 143 133 126 127 144 141 132 113 114 108 106 99 94 87 80 77 75 71 68 67 66 64 66 61 54 37 37 35 46
176 180 226 221 239 249 275 73 243 137 168 188 194 277 347 78 85 131 124 146 146 141 131 145 151 136 129 123 115 109 106 99 91 85 82 79 75 73 67 62 62 62 61 56 49 40 21 331 269
180 189 220 240 246 247 276 326 259 196 165 201 235 209 117 54 121 122 146 150 149 146 134 152 150 137 133 124 117 113 109 104 99 93 88 83 81 76 70 65 62 56 51 48 46 32 10 356 319
208 240 236 233 244 262 253 281 261 238 212 187 198 216 136 125 121 136 149 154 154 151 138 142 139 139 135 129 124 121 116 109 103 96 89 83 79 74 69 63 58 53 49 46 38 19 9 338 319
201 257 236 234 241 232 247 268 244 241 234 169 221 242 125 141 157 155 156 158 159 157 151 143 147 140 135 127 124 119 114 111 111 106 100 91 87 85 72 66 55 47 42 35 25 2 344 331 318
243 216 247 256 256 245 240 238 240 250 240 227 242 234 99 160 160 161 162 160 161 159 158 154 150 147 146 139 131 125 122 124 122 116 92 77 66 56 57 42 44 32 14 357 344 335 331 328 320
250 251 256 249 251 249 198 190 220 240 255 60 7 237 210 155 157 161 163 163 164 166 164 161 158 153 147 143 154 154 153 162 151 118 77 56 31 24 19 28 4 353 345 337 330 325 325 322 316
247 238 237 243 249 248 144 214 176 73 245 205 187 293 82 136 154 160 170 176 174 177 178 176 170 165 162 154 169 178 188 185 148 129 100 62 59 47 29 358 352 342 337 335 330 329 327 331 336
212 233 237 250 261 244 217 230 207 213 204 217 197 145 142 154 172 178 185 189 192 189 186 183 182 176 170 172 167 168 173 159 157 137 131 69 28 352 352 348 347 341 342 346 342 339 346 350 324
215 239 241 247 252 253 238 223 205 223 234 224 216 187 177 177 188 200 202 203 200 199 194 191 187 185 181 182 181 181 180 174 164 166 164 65 22 352 347 342 339 335 331 340 333 332 331 323 320
254 243 256 259 224 224 223 233 222 230 233 296 242 220 177 192 196 204 208 208 201 200 200 197 192 190 190 189 189 190 187 187 179 187 202 134 346 336 334 333 331 331 329 331 330 325 319 317 310
234 254 245 238 228 228 244 237 236 244 238 205 205 184 189 201 207 210 212 209 205 204 201 201 195 194 194 193 193 190 192 186 191 189 226 203 279 301 319 318 324 322 324 325 324 319 314 310 306
217 248 244 241 232 231 229 242 239 246 240 227 217 212 210 211 204 205 208 207 204 205 204 200 200 197 195 195 195 193 192 193 186 194 210 250 253 287 303 311 313 318 317 317 316 313 312 307 302
247 254 241 238 233 233 234 254 233 240 219 233 227 222 218 217 222 217 207 209 207 208 207 203 201 198 197 196 195 194 192 191 194 200 227 238 254 275 293 298 301 305 309 314 312 311 308 305 300
233 237 250 234 216 215 193 254 226 232 228 225 229 222 212 206 202 199 199 206 211 210 208 204 200 197 194 194 192 192 196 194 199 201 211 236 252 268 281 285 289 295 308 308 310 308 304 303 298
220 242 229 241 213 190 208 260 251 186 203 217 219 216 208 209 199 196 196 201 207 211 210 205 199 195 191 189 188 190 193 197 203 206 217 233 255 267 272 278 282 292 296 299 301 303 301 300 296
219 221 242 238 181 209 216 244 235 201 222 224 221 220 218 216 210 197 199 209 212 213 211 206 197 193 186 181 183 187 195 201 207 214 223 232 254 262 270 273 279 290 292 292 292 298 297 291 290
241 243 239 245 245 212 234 244 244 230 217 227 218 214 213 215 203 185 196 203 207 210 203 197 190 188 181 181 183 190 201 207 215 218 226 235 242 252 258 265 271 277 282 286 290 293 294 293 288
240 248 253 259 196 223 259 255 250 248 231 223 224 218 216 209 194 194 190 186 188 191 192 187 187 185 184 185 185 194 202 212 219 222 231 230 238 243 253 261 267 271 278 280 282 286 292 283 280
230 232 239 248 189 242 278 274 253 245 242 237 223 224 216 212 198 191 183 180 173 175 179 181 182 182 183 182 179 176 177 195 215 230 238 239 237 241 251 253 256 263 266 270 269 272 279 286 273
232 227 237 237 244 245 182 276 258 246 229 227 228 220 224 209 195 188 176 170 170 162 164 170 174 178 181 181 185 194 207 223 230 232 236 235 242 248 251 251 250 252 254 258 258 259 265 273 270
235 233 238 234 234 246 239 257 260 238 242 221 223 219 217 200 192 185 174 167 162 158 160 165 170 174 177 184 193 204 221 234 240 241 249 249 250 251 250 246 245 246 247 250 251 254 258 264 267
139 93 79 160 206 229 223 208 268 243 236 228 214 207 198 192 185 178 170 164 163 164 164 168 173 177 183 190 200 211 223 235 242 242 248 253 252 248 247 241 238 240 242 243 245 247 250 249 248
160 155 202 204 205 230 195 205 237 260 240 259 217 182 182 173 179 172 168 170 170 171 173 176 182 187 192 200 208 217 225 232 241 245 251 252 249 247 244 236 236 239 239 237 238 242 242 239 240
191 194 208 217 203 218 175 207 240 6 132 36 353 166 165 173 172 170 171 170 170 173 176 181 188 194 198 207 215 219 224 228 235 242 246 250 251 246 239 232 238 244 243 236 236 238 232 234 235
163 211 222 133 210 190 191 260 284 189 187 186 171 168 174 174 170 165 160 165 165 172 177 186 194 202 205 214 218 219 222 225 230 236 241 250 253 253 253 246 240 236 240 235 228 232 233 233 239
201 161 173 212 185 224 211 243 238 185 204 187 182 182 175 167 163 157 160 159 157 159 162 171 188 206 206 212 219 223 226 229 237 241 247 247 248 250 250 252 246 244 241 240 241 237 236 236 238
172 169 203 209 223 216 239 233 342 295 200 185 181 174 169 160 157 155 149 142 131 150 169 181 199 211 218 224 228 233 231 235 245 249 254 256 254 253 247 245 245 242 240 235 232 234 233 234 235
234 200 192 205 196 244 340 256 37 10 358 164 167 161 152 149 148 145 134 137 140 145 153 168 190 214 229 234 237 240 245 243 246 250 252 253 253 249 244 245 247 242 237 232 233 234 236 233 232